Location: Unspecified
(35.7250°N, 0.0000°E)
Time: 06:42:00
(UTC+00:00)

Vanguard 1 - Pass Details

Date: 27 June 2019
Orbit: 653 x 3830 km, 34.3° (Epoch: 12 October)

Event Time Altitude Azimuth Distance (km) Brightness Sun altitude
Rises 00:13:20 0° 229° (SW) 7,884 - -30.9°
Reaches altitude 10° 00:18:48 10° 226° (SW) 6,926 - -30.8°
Exits shadow 00:30:49 37° 212° (SSW) 4,855 13.0 -30.6°
Maximum altitude 00:41:16 59° 154° (SSE) 3,622 12.5 -30.2°
Drops below altitude 10° 00:56:23 10° 80° (E) 4,907 13.9 -29.6°
Sets 00:59:28 0° 77° (ENE) 5,568 14.3 -29.4°
